Preview of NWS' New Version of Forecast
This preview is not operational and should not be used for support decisions.

Regional Weather Roundup (RWR)

Issued by National Weather Service (NWS)

                            
000
ASUS44 KMEG 221000
RWRTN 
TENNESSEE HOURLY STATE WEATHER ROUNDUP
NATIONAL WEATHER SERVICE MEMPHIS TN
500 AM CDT WED MAY 22 2019

TNZ002-004-019-021-049-052-054-088>092-221100-
WEST TENNESSEE
  
CITY           SKY/WX    TMP DP  RH WIND       PRES   REMARKS
MEMPHIS INTL   MOCLDY    73  66  78 CALM      29.84F                  
NWS MEMPHIS      N/A     74 N/A N/A MISG        N/A                   
JACKSON        FAIR      74  66  76 S6        29.88R                  
DYERSBURG      MOCLDY    65  63  93 SE3       29.88S                  
$$

TNZ008-025-027-028-033-062-065-066-221100-
NORTH MIDDLE TENNESSEE
  
CITY           SKY/WX    TMP DP  RH WIND       PRES   REMARKS
NASHVILLE      FAIR      74  62  66 S12       29.93R                  
CLARKSVILLE    MOCLDY    75  64  68 S8        29.90R                  
SMYRNA         FAIR      72  63  73 S8        29.94S                  
CROSSVILLE     FAIR      66  59  78 SE5       30.05F                  
$$

TNZ061-075-076-078-094-096-097-221100-
SOUTH MIDDLE TENNESSEE
  
CITY           SKY/WX    TMP DP  RH WIND       PRES   REMARKS
$$

TNZ017-018-042-046-047-221100-
NORTHEAST TENNESSEE
  
CITY           SKY/WX    TMP DP  RH WIND       PRES   REMARKS
TRI CITIES     FAIR      61  55  81 N3        30.12R                  
$$

TNZ012-013-036-069-073-074-221100-
CENTRAL EAST TENNESSEE
  
CITY           SKY/WX    TMP DP  RH WIND       PRES   REMARKS
KNOXVILLE      FAIR      66  60  81 NW5       30.04R                  
OAK RIDGE      FAIR      65  59  81 CALM      30.06R                  
$$

TNZ083-085-099-221100-
SOUTHEAST TENNESSEE
  
CITY           SKY/WX    TMP DP  RH WIND       PRES   REMARKS
CHATTANOOGA    FAIR      70  67  90 S3        30.02S                  
$$

SKY/WX REPORTED AS FAIR MEANS FEW OR NO CLOUDS BELOW
12 THOUSAND FEET.